Regional Weather Roundup
Issued by NWS Newport/Morehead, NC

Current Version | Previous Version | Graphics & Text | Print | Product List | Glossary On
Versions: 1 2 3 4 5 6 7 8 9 10 11 12 13 14 15 16 17 18 19 20 21 22 23 24 25 26 27 28 29 30 31 32 33 34 35 36 37 38 39 40 41 42 43 44 45 46 47 48 49 50
000 ASUS42 KMHX 250614 RWRMHX WEATHER ROUNDUP FOR EASTERN NORTH CAROLINA NATIONAL WEATHER SERVICE NEWPORT/MOREHEAD CITY NC 200 AM EDT TUE JUL 25 2017 NOTE: "FAIR" INDICATES FEW OR NO CLOUDS BELOW 12,000 FEET WITH NO SIGNIFICANT WEATHER AND/OR OBSTRUCTIONS TO VISIBILITY NCZ015>017-031-032-045>047-102-103-250700- NORTH COAST CITY SKY/WX TMP DP RH WIND PRES REMARKS EDENTON PTCLDY 82 77 84 CALM 29.96S ELIZABETH CITY CLOUDY 78 77 96 SW6 29.94R KITTY HAWK MOCLDY 80 77 91 SW6 29.94R MANTEO PTCLDY 80 77 92 W12 29.95S $$ NCZ045>047-081-094-103-104-250700- CENTRAL COAST CITY SKY/WX TMP DP RH WIND PRES REMARKS FRISCO CLOUDY 78 75 90 SW12 29.98R $$ NCZ095-097-098-100-101-250700- SOUTHERN COAST CITY SKY/WX TMP DP RH WIND PRES REMARKS BEAUFORT CLOUDY 81 78 91 SW13 29.99S CEDAR ISLAND NOT AVBL JACKSONVILLE CLOUDY 77 74 90 SW5 29.99R PINEY ISLAND PTCLDY N/A N/A N/A SW10 29.98R WILMINGTON CLOUDY 77 72 84 SW7 30.00R $$ NCZ011>013-027>030-043-044-078>080-089-090>093-098-250700- COASTAL PLAIN CITY SKY/WX TMP DP RH WIND PRES REMARKS AHOSKIE N/A 74 74 98 CALM 29.95R CLINTON CLOUDY 75 73 93 SW5 29.99S ELIZABETHTOWN NOT AVBL GOLDSBORO CLOUDY 78 78 100 SW7 29.96S GREENVILLE CLOUDY 79 75 89 SW6 29.98S HAVELOCK CLOUDY 79 75 87 SW8 29.99S KENANSVILLE CLOUDY 75 72 88 SW3 29.99R KINSTON CLOUDY 78 74 87 SW7 29.98S NEW BERN CLOUDY 77 75 93 SW7 29.99S RICHLANDS MOCLDY 75 72 90 SW7 30.00R ROCKY MOUNT PTCLDY 76 75 97 S3 29.96R WASHINGTON CLOUDY 79 76 91 SW8 29.97R WHITEVILLE CLOUDY 75 72 91 CALM 30.00S $$ AMZ130-135-150-152-154-156-158-170-250-252-270-ANZ085-086-088-633-658-670-250700- MARINE OBSERVATIONS STATION/POSITION TIME TEMP WIND PRES WAVE SWELL AIR SEA DIR/SP/G HT/PER HT/PER (UTC) (F) (DEG/KT/KT) (MB) (FT/S) (FT/S) CHESAPEAKE LIGHT NOT AVBL 64 E VA BEACH 0550 80 78 230/ 12/ 14 1013.7 4/ 6 3/ 7 DUCK 0548 82 65 240/ 12/ 19 1013.6 2 E DUCK 0530 73 N/A 2/10 OREGON INLET 0548 230/ 12/ 16 N/A 13E OREGON INLT 0548 70 N/A 4/ 7 2/ 7 HATTERAS CG 0548 78 78 220/ 9/ 13 1015.2 DIAMOND BUOY 0550 83 84 230/ 19/ 23 1015.0 6/ 6 2/11 CAPE LOOKOUT 0600 80 240/ 10/ 13 1015.4 BEAUFORT LAB 0548 80 80 240/ 5/ 12 1015.0 30 SE NEW RVR IN 0508 81 83 250/ 16/ 21 1015.8 30 SE NEW RVR IN 0543 83 N/A 5/ 6 27 SE WRIGHTSVLE 0508 82 83 220/ 16/ 21 1015.7 5 SE WRIGHTSVLE 0508 80 82 250/ 8/ 14 1015.7 225 S CAPE HAT 0550 83 83 200/ 14/ 16 1019.0 5/ 7 3/ 7 41 SE CHARLESTON 0550 82 81 240/ 14/ 17 1016.3 4/ 6 2/ 8 $$

USA.gov is the U.S. government's official web portal to all federal, state and local government web resources and services.